Tracking 18980 objects as of 19-Feb-2018
HD Live streaming from Space Station
objects crossing your sky now

LES 5

Track LES 5 now!
LES 5 is classified as:


NORAD ID: 2866
Int'l Code: 1967-066E
Perigee: 33,181.1 km
Apogee: 33,635.3 km
Inclination: 4.6 °
Period: 1,316.0 minutes
Semi major axis: 39779 km
RCS: 2.6184 m2 (large)
Launch date: July 1, 1967
Source: United States (US)
Launch site: AIR FORCE EASTERN TEST RANGE (AFETR)
aabbcc
Your satellite tracking list
Your tracking list is empty




NASA's NSSDC Master Catalog

Two Line Element Set (TLE):
1 02866U 67066E   18049.51381063 -.00000109  00000-0  00000+0 0  9996
2 02866   4.6087 290.3330 0057093 325.9326 311.2745  1.09425673 97751
Source of the keplerian elements: AFSPC